Location: Gloden
(48.4833°N, 15.3167°E)
Time: 12:56:21
(UTC+00:00)

AO-7 - Visible Passes

Search period start: 06 May 2021 00:00
Search period end: 16 May 2021 00:00
Orbit: 1439 x 1459 km, 101.9° (Epoch: 05 May)

Date Brightness Start Highest point End Pass type
(mag) Time Alt. Az. Time Alt. Az. Time Alt. Az.
06 May ? 01:10:50 10° NE 01:14:52 14° E 01:18:52 10° ESE visible
07 May ? 02:01:38 10° NE 02:08:47 31° E 02:15:52 10° SSE visible
08 May ? 01:04:30 10° ENE 01:07:39 12° E 01:10:47 10° ESE visible
09 May ? 01:54:45 10° NE 02:01:38 28° E 02:08:29 10° SSE visible
10 May ? 00:58:38 10° ENE 01:00:26 11° E 01:02:13 10° E visible
10 May ? 02:46:59 10° NNE 02:55:07 55° ESE 03:03:13 10° S visible
11 May ? 01:47:53 10° NE 01:54:30 25° E 02:01:04 10° SE visible
12 May ? 02:40:00 10° NNE 02:48:02 50° ESE 02:56:02 10° S visible
13 May ? 01:41:04 10° NE 01:47:21 23° E 01:53:35 10° SE visible
14 May ? 02:33:01 10° NNE 02:40:57 46° E 02:48:50 10° S visible
15 May ? 01:34:16 10° NE 01:40:11 21° E 01:46:03 10° SE visible
